Location: Gad�tanya
(48.0500°N, 20.8500°E)
Time: 11:56:31
(UTC+00:00)

Cosmos 1933 - Pass Details

Date: 05 July 2020
Orbit: 548 x 562 km, 82.5° (Epoch: 14 August)

Event Time Altitude Azimuth Distance (km) Brightness Sun altitude
Rises 21:55:23 0° 353° (N) 2,732 8.6 -18.5°
Reaches altitude 10° 21:57:35 10° 357° (N) 1,834 7.2 -18.6°
Maximum altitude 22:01:35 61° 78° (ENE) 628 3.5 -18.7°
Enters shadow 22:02:40 43° 137° (SE) 786 3.7 -18.7°
